Hourly Data Report for July 25, 2021

NANAIMO A
BRITISH COLUMBIA
Current Station Operator: NAVCAN

49°03'16.000" N
123°52'12.000" W
28.00 m
1025365
YCD

Download Data

Hourly Data (July 2021)
Hourly Data Report for July 25, 2021
TIME
LST
Temp Definition
°C
Dew Point Definition
°C
Rel Hum Definition
%
Precip. Amount Definition
mm

Wind Dir Definition
10's deg

Wind Spd Definition
km/h
Visibility Definition
km
Stn Press Definition
kPa
Hmdx Definition


Wind Chill Definition


Weather Definition


00:00 17.3 13.1 76 LegendMM 17 3 LegendMM 101.39     LegendNANA
01:00 17.2 13.1 77 LegendMM 0 1 LegendMM 101.41     LegendNANA
02:00 16.0 12.9 81 LegendMM 16 6 LegendMM 101.39     LegendNANA
03:00 15.7 12.6 82 LegendMM 32 1 LegendMM 101.41     LegendNANA
04:00 14.1 12.9 92 LegendMM 17 1 LegendMM 101.43     LegendNANA
05:00 15.3 12.3 82 LegendMM 21 4 LegendMM 101.47     LegendNANA
06:00 16.5 12.8 78 LegendMM 7 3 LegendMM 101.48     LegendNANA
07:00 20.5 14.0 66 LegendMM 7 5 LegendMM 101.52     LegendNANA
08:00 22.5 14.3 59 LegendMM 5 9 LegendMM 101.51 26   LegendNANA
09:00 23.7 14.1 54 LegendMM 36 10 LegendMM 101.49 27   LegendNANA
10:00 24.5 14.3 52 LegendMM 36 13 LegendMM 101.45 28   LegendNANA
11:00 25.4 14.4 50 LegendMM 34 13 LegendMM 101.43 29   LegendNANA
12:00 25.9 15.1 51 LegendMM 36 15 LegendMM 101.40 30   LegendNANA
13:00 26.2 15.2 50 LegendMM 9 7 LegendMM 101.36 30   LegendNANA
14:00 26.6 14.9 48 LegendMM 34 11 LegendMM 101.31 31   LegendNANA
15:00 27.3 14.8 46 LegendMM 8 10 LegendMM 101.27 31   LegendNANA
16:00 27.1 14.6 46 LegendMM 11 9 LegendMM 101.22 31   LegendNANA
17:00 27.2 14.5 45 LegendMM 12 9 LegendMM 101.19 31   LegendNANA
18:00 26.6 13.9 45 LegendMM 7 6 LegendMM 101.16 30   LegendNANA
19:00 25.5 14.3 49 LegendMM 15 6 LegendMM 101.16 29   LegendNANA
20:00 23.3 15.1 60 LegendMM 15 4 LegendMM 101.16 27   LegendNANA
21:00 21.9 14.8 64 LegendMM 25 8 LegendMM 101.18 26   LegendNANA
22:00 20.4 14.8 70 LegendMM 27 2 LegendMM 101.18     LegendNANA
23:00 19.4 14.5 73 LegendMM 30 5 LegendMM 101.19     LegendNANA

Notes on Data Quality.

Legend

  • E = Estimated
  • M = Missing
  • NA = Not Available*
  • [empty] = Indicates an unobserved value
Date modified: